星链-36365(STARLINK-36365)

导读

STARLINK-36365是美国SpaceX星链计划中的一颗卫星,于2026年2月2日发射升空。作为星链星座的组成部分,它主要用于为全球提供高速互联网接入服务,尤其覆盖偏远地区等网络基础设施匮乏区域,进一步扩充星链星座的服务规模与覆盖范围,推动全球卫星互联网网络的完善。

基本信息
目录编号:
67666
目录名称:
STARLINK-36365
国际标识:
2026-022U
轨道中心:
EARTH
卫星名称:
星链-36365
卫星全名:
星链-36365(STARLINK-36365)
卫星状态:
在轨 (已飞行131 天)
发射日期:
2026-02-02 UTC
国别 :
美国 (US)
星等 :
--
轨道信息
数据来源 国际轨道数据
星历时间: 2026-06-12T09:41:35+0800
1天前
查看轨道信息
半长轴: 6843.42km
偏心率: 0.0001157
轨道倾角: 97.284°
近地点辐角 96.829°
升交点赤经 196.024°
平近点角 263.308°
近地点: 464.491km
远地点: 466.075km
周期: 93.901分钟
每日圈数: 15.335325
详细信息
固有亮度:
5
最大亮度:
2.5
卫星平台:
Starlink V1.0
覆盖范围:
全球
运营商:
太空探索技术公司
运营商所在国:
美国
制造商(研发单位):
太空探索技术公司
制造商所在国:
美国
使用方式:
暂无
卫星简介
Starlink 计划是 SpaceX 推出的全球卫星互联网项目,通过发射低轨道卫星,为全球尤其是偏远地区提供高速、低延迟的互联网服务。自 2019 年起,Starlink 已部署数千颗卫星,旨在缩小全球数字鸿沟,推动互联网普及。该项目还为军事、航空等行业提供通信支持,带来广泛经济效益。
2D轨道图
3D轨道图
轨道高度分析图
轨道倾角分析图
轨道综合分析图
查看轨道综合分析图